Regional Weather Roundup
Issued by NWS Sterling, VA

Home | Current Version | Previous Version | Graphics & Text | Print | Product List | Glossary On
Versions: 1 2 3 4 5 6 7 8 9 10 11 12 13 14 15 16 17 18 19 20 21 22 23 24 25 26 27 28 29 30 31 32 33 34 35 36 37 38 39 40 41 42 43 44 45 46 47 48 49 50
000
ASUS41 KLWX 271010
RWRLWX

REGIONAL WEATHER ROUNDUP
NATIONAL WEATHER SERVICE BALTIMORE MD/WASHINGTON DC
500 AM EST THU NOV 27 2014

Note: "FAIR" indicates few or no clouds below 12,000 feet
with no significant weather and/or obstructions to visibility.
 TC=TEMPERATURE CELSIUS

 * =Non NWS site. Station does not report precipitation (e.g. rain,
    snow, etc.), thunder, or fog.

DCZ001-MDZ009-015-VAZ040>042-051-053>054-271100-
WASHINGTON METRO

CITY           SKY/WX    TMP DP  RH WIND       PRES   REMARKS
WASHINGTON NAT CLOUDY    39  32  76 CALM      30.03S
DULLES         CLOUDY    33  32  96 CALM      30.02S
ANDREWS AFB    MOCLDY    35  32  89 W3        30.01R
FT BELVOIR     CLOUDY    32  32 100 CALM      30.03S FOG
QUANTICO       CLOUDY    35  32  88 NW5       30.04S
COLLEGE PARK*  MOCLDY    34  32  93 CALM      30.02R
LEESBURG*      CLOUDY    36  36 100 NW5       30.02R
MANASSAS*      CLOUDY    34  34 100 CALM      30.03S
GAITHERSBURG*  CLOUDY    30  28  93 CALM      30.03S

$$

MDZ006>007-011-014-271100-
BALTIMORE METRO

CITY           SKY/WX    TMP DP  RH WIND       PRES   REMARKS
BWI AIRPORT    MOCLDY    34  31  88 W3        30.00S
MD SCIENCE CTR   N/A     34  32  92 MISG      30.01R
MARTIN STATE   CLOUDY    36  34  93 SW5       30.02S
ANNAPOLIS      MOCLDY    35  31  85 NW5       30.01S
FORT MEADE*    CLOUDY    32  32 100 CALM      30.03S

$$

MDZ012-015-019>023-271100-
MARYLAND EASTERN SHORE

CITY           SKY/WX    TMP DP  RH WIND       PRES   REMARKS
OCEAN CITY     MOCLDY    36  33  89 W5        30.00R
SALISBURY      MOCLDY    37  33  85 W5        30.01R
BAY BRIDGE AP*   N/A     36  32  87 W8        30.01S
CAMBRIDGE*     CLOUDY    37  34  87 CALM      30.00F
EASTON*        CLOUDY    38  38 100 NW6       30.04S

$$

MDZ017>025-271100-
SOUTHERN MARYLAND

CITY           SKY/WX    TMP DP  RH WIND       PRES   REMARKS
PATUXENT RIVER CLOUDY    34  31  88 W6        30.03S
ST INIGOES     CLOUDY    38  32  79 W6        30.03S
LEONARDTOWN*   CLOUDY    32  32 100 CALM      30.04R

$$

MDZ003>005-271100-
NORTH CENTRAL MARYLAND

CITY           SKY/WX    TMP DP  RH WIND       PRES   REMARKS
FREDERICK*     CLOUDY    34  32  93 CALM      30.03F
HAGERSTOWN APT CLOUDY    34  31  88 CALM      29.99S
WESTMINSTER*     N/A     30  28  93 W5        29.98R FOG

$$

MDZ501>502-271100-
WESTERN MARYLAND

CITY           SKY/WX    TMP DP  RH WIND       PRES   REMARKS
OAKLAND*       CLOUDY    27 N/A N/A CALM      29.90S FOG
CUMBERLAND*    CLOUDY    32  32 100 CALM        N/A  VSB 1/2

$$

VAZ025>031-271100-
SHENANDOAH VALLEY

CITY           SKY/WX    TMP DP  RH WIND       PRES   REMARKS
WINCHESTER*    FOG       32  30  93 NW3       30.01R VSB 1/4
FRONT ROYAL*   CLOUDY    32  32 100 CALM      30.00S VSB 1
LURAY*         FOG       32  32 100 CALM      29.99S VSB 1/4
NEW MARKET*    CLOUDY    29  28  99 CALM      29.99S
STAUNTON*      FOG       28  27  94 CALM      30.00R VSB 1/4
WAYNESBORO*    CLOUDY    31  31 100 CALM      29.97S

$$

WVZ021-048>050-054>055-271100-
EASTERN WEST VIRGINIA PANHANDLE

CITY           SKY/WX    TMP DP  RH WIND       PRES   REMARKS
MARTINSBURG    CLOUDY    35  31  85 CALM      30.00S FOG
PETERSBURG*    FOG       31  31  97 CALM      30.00S VSB 1/4

$$

VAZ036>039-050-271100-
CENTRAL FOOTHILLS

CITY           SKY/WX    TMP DP  RH WIND       PRES   REMARKS
CHARLOTTESVILL FOG       33  32  96 E3        29.99F VSB 1/2
CULPEPER*      CLOUDY    34  34 100 CALM      30.02F FOG
ORANGE*        CLOUDY    36  36 100 CALM      30.03S FOG
GORDONSVILLE*  FOG       33  32  99 CALM      30.00F VSB 1/4
WARRENTON*     CLOUDY    33  33 100 CALM      30.01F FOG

$$

VAZ055>057-271100-
NORTH AND CENTRAL PIEDMONT

CITY           SKY/WX    TMP DP  RH WIND       PRES   REMARKS
FREDERICKSBRG* MOCLDY    36  36 100 CALM      30.03S
STAFFORD*      CLOUDY    32  32 100 CALM      30.07S FOG

$$

NCZ024-NYZ072-PAZ021-071-VAZ022-071-271100-
OTHER REGIONAL OBSERVATIONS

CITY           SKY/WX    TMP DP  RH WIND       PRES   REMARKS
NEW YORK CITY  CLOUDY    36  30  79 NW3       29.96R
PHILADELPHIA   FLURRIES  35  31  85 NW6       29.97F
PITTSBURGH     CLOUDY    32  31  96 W3        29.99S FOG
ROANOKE        CLOUDY    36  35  96 CALM      30.00S
RICHMOND       CLOUDY    39  37  92 CALM      30.03F
RALEIGH        MOCLDY    41  38  89 E6        30.01F

$$

ANZ530>537-271100-
MARINE OBSERVATIONS

STATION/POSITION TIME  TEMP    WIND        PRES
                       AIR SEA DIR/SP/G
                 (UTC) (F)     (DEG/KT/KT) (MB)
THOMAS PT LIGHT  1000   38 47  310/  7/  7 1017.4S
BALT KEY BRIDGE  1000   36     250/  9/ 11 1016.0R
COVE POINT       1000   36     310/  5/  8 1016.4S
LEWISETTA        1000   38 47  230/  5/  6 1016.8F
SOLOMONS ISLAND  1000      49                N/A
PINEY POINT      1000          250/  4/  6   N/A

$$



USA.gov is the U.S. government's official web portal to all federal, state and local government web resources and services.